Airfield :
LOGIN :

Register | Disclaimer

   EN    FR    IT 

 










Legend :    VFR   Marginal VFR   IFR   Intensive IFR   Very Intensive IFR
Visi :
Ceiling :
>= 8 km
>= 3000ft
5 to 8 km
1000 to 3000 ft
1500m to 5 km
500 to 1000 ft
800 to 1500m
200 to 500 ft
< 800m
< 200 ft
Symbols :   Thunderstorms  Fog  Heavy snow  Heavy precipitations  Wind > 20 kt
SIGMETs :     Misc.  Thunderstorms  Icing  Turbulence  Mountain Waves  Volcanic Ashes







- Airport Elevation : 80 ft
- IATA code : LPL
- Download approach charts


EGGP - Liverpool John Lennon

CURRENT METAR :
  • 190450Z AUTO 06011KT 9999 FEW024/// BKN029/// OVC035/// 08/05 Q1026

EXPIRED METARs :
  • 190420Z AUTO 06009KT 9999 FEW021/// BKN027/// OVC032/// 07/05 Q1026
  • 190350Z AUTO 05008KT 9999 OVC025/// 07/05 Q1027
  • 190320Z 05010KT 9999 BKN027 07/05 Q1027
  • 190250Z 05010KT 9999 SCT039 06/04 Q1027

TAF TAF EGGP
Valid from the 19 at 06:00 until the 20 at 06:00 UTC


190503Z 1906/2006 03005KT 9999 SCT025
BECMG 1906/1909 09010KT
PROB30
TEMPO 1911/1921 7000 SHRA
TEMPO 1921/2006 7000 SHRA
PROB30
TEMPO 1921/2006 08015G25KT
ATIS : +44 151 907 2000 (option 5 or ext 5150)
Met : +44 871 750 5150
No reported NOTAMs for that airfield.



MET'MAP, your aeronautical weather chart ! - Copyright ORBIFLY December 2007 - Disclaimer

ORBIFLY MET'MAP TEAM :

Programming & Development : Alexandra Zaïnal
Concept & Development : Baudouin d'Aumeries
Co-Development & Prog : Marc-Olivier Méhu
Technical & hardware support : Manuel Goepfert

Contact : metmap@orbifly.com




SOURCES & CREDITS :

   NOAA